ABY419 OMDB-OMAA

Flight info

Callsign ABY419
Flight time 0h 19m
Altitude 10000
Route EMERU
Aircraft A21N/M-SDE2E3FGHIRWXY/LB1

Departure

Time 2026-04-23 22:12
Airport Dubai International Airport (OMDB)

Arrival

Time 2026-04-23 22:32
Airport Zayed International Airport (OMAA)
Time Latitude Longitude Altitude Speed Heading
2026-04-23 21:52 25.26032 55.34199 23 ft 0 kts 211°
2026-04-23 22:00 25.26034 55.34200 23 ft 1 kts 211°
2026-04-23 22:01 25.26047 55.34208 23 ft 2 kts 211°
2026-04-23 22:01 25.26060 55.34217 23 ft 2 kts 211°
2026-04-23 22:01 25.26073 55.34226 23 ft 2 kts 211°
2026-04-23 22:01 25.26085 55.34234 23 ft 2 kts 211°
2026-04-23 22:02 25.26093 55.34240 23 ft 2 kts 211°
2026-04-23 22:02 25.26108 55.34244 23 ft 2 kts 178°
2026-04-23 22:02 25.26122 55.34241 23 ft 2 kts 154°
2026-04-23 22:02 25.26134 55.34231 23 ft 1 kts 128°
2026-04-23 22:03 25.26138 55.34226 23 ft 1 kts 118°
2026-04-23 22:03 25.26140 55.34222 23 ft 0 kts 121°
2026-04-23 22:04 25.26139 55.34223 23 ft 0 kts 121°
2026-04-23 22:04 25.26130 55.34239 23 ft 4 kts 122°
2026-04-23 22:04 25.26109 55.34275 23 ft 7 kts 122°
2026-04-23 22:04 25.26077 55.34331 23 ft 10 kts 122°
2026-04-23 22:05 25.26037 55.34401 25 ft 11 kts 120°
2026-04-23 22:05 25.25995 55.34481 26 ft 12 kts 120°
2026-04-23 22:05 25.25944 55.34573 26 ft 17 kts 122°
2026-04-23 22:05 25.25862 55.34720 27 ft 26 kts 121°
2026-04-23 22:06 25.25768 55.34889 30 ft 24 kts 122°
2026-04-23 22:06 25.25753 55.35003 30 ft 14 kts 34°
2026-04-23 22:06 25.25838 55.35059 29 ft 14 kts 31°
2026-04-23 22:06 25.25924 55.35116 30 ft 14 kts 31°
2026-04-23 22:07 25.26018 55.35179 30 ft 17 kts 31°
2026-04-23 22:07 25.26113 55.35273 30 ft 22 kts 91°
2026-04-23 22:07 25.26027 55.35467 32 ft 36 kts 118°
2026-04-23 22:07 25.25894 55.35706 34 ft 35 kts 121°
2026-04-23 22:08 25.25771 55.35927 36 ft 32 kts 122°
2026-04-23 22:08 25.25657 55.36131 38 ft 29 kts 121°
2026-04-23 22:08 25.25533 55.36350 39 ft 39 kts 121°
2026-04-23 22:08 25.25401 55.36594 41 ft 35 kts 120°
2026-04-23 22:09 25.25281 55.36814 43 ft 31 kts 121°
2026-04-23 22:09 25.25168 55.37013 46 ft 29 kts 123°
2026-04-23 22:09 25.25059 55.37207 46 ft 30 kts 120°
2026-04-23 22:09 25.24935 55.37429 47 ft 37 kts 121°
2026-04-23 22:10 25.24807 55.37662 49 ft 34 kts 120°
2026-04-23 22:10 25.24700 55.37862 49 ft 27 kts 121°
2026-04-23 22:10 25.24688 55.37965 51 ft 12 kts 43°
2026-04-23 22:10 25.24695 55.37971 51 ft 0 kts 33°
2026-04-23 22:11 25.24722 55.37989 52 ft 10 kts 31°
2026-04-23 22:11 25.24787 55.38028 52 ft 11 kts
2026-04-23 22:11 25.24920 55.37826 49 ft 70 kts 302°
2026-04-23 22:11 25.25304 55.37136 46 ft 139 kts 302°
2026-04-23 22:12 25.25904 55.36047 168 ft 181 kts 302°
2026-04-23 22:12 25.26577 55.34827 711 ft 192 kts 303°
2026-04-23 22:12 25.27279 55.33580 1479 ft 195 kts 304°
2026-04-23 22:12 25.27989 55.32308 2341 ft 201 kts 304°
2026-04-23 22:13 25.28733 55.30969 3081 ft 218 kts 303°
2026-04-23 22:13 25.29278 55.29287 3562 ft 256 kts 272°
2026-04-23 22:13 25.28805 55.27341 4440 ft 273 kts 242°
2026-04-23 22:13 25.27943 55.25579 5928 ft 265 kts 243°
2026-04-23 22:14 25.26988 55.23959 7283 ft 247 kts 222°
2026-04-23 22:14 25.25520 55.23127 8337 ft 239 kts 198°
2026-04-23 22:14 25.23956 55.22626 9122 ft 240 kts 199°
2026-04-23 22:14 25.22347 55.22043 9668 ft 245 kts 201°
2026-04-23 22:15 25.20725 55.21419 9951 ft 247 kts 201°
2026-04-23 22:15 25.19084 55.20768 9995 ft 255 kts 202°
2026-04-23 22:15 25.17331 55.20057 10012 ft 284 kts 202°
2026-04-23 22:15 25.15367 55.19252 10018 ft 317 kts 202°
2026-04-23 22:16 25.13216 55.18370 10014 ft 346 kts 201°
2026-04-23 22:16 25.10864 55.17405 10011 ft 368 kts 202°
2026-04-23 22:16 25.08445 55.16413 10010 ft 372 kts 201°
2026-04-23 22:16 25.05999 55.15411 9995 ft 373 kts 201°
2026-04-23 22:17 25.03554 55.14408 9995 ft 373 kts 201°
2026-04-23 22:17 25.01101 55.13399 9989 ft 382 kts 201°
2026-04-23 22:17 24.98598 55.12370 9994 ft 385 kts 201°
2026-04-23 22:17 24.96073 55.11333 10006 ft 384 kts 201°
2026-04-23 22:18 24.93555 55.10298 9997 ft 385 kts 201°
2026-04-23 22:18 24.91036 55.09263 9993 ft 385 kts 201°
2026-04-23 22:18 24.88521 55.08231 9992 ft 386 kts 201°
2026-04-23 22:18 24.86001 55.07199 9993 ft 386 kts 201°
2026-04-23 22:19 24.83499 55.06161 9990 ft 386 kts 202°
2026-04-23 22:19 24.81027 55.04989 9893 ft 380 kts 206°
2026-04-23 22:19 24.78687 55.03686 9345 ft 376 kts 209°
2026-04-23 22:19 24.76442 55.02251 8642 ft 375 kts 211°
2026-04-23 22:20 24.74198 55.00780 8170 ft 373 kts 211°
2026-04-23 22:20 24.71965 54.99316 7990 ft 374 kts 211°
2026-04-23 22:20 24.69717 54.97841 7988 ft 374 kts 211°
2026-04-23 22:20 24.67481 54.96376 7965 ft 373 kts 211°
2026-04-23 22:21 24.65257 54.94920 7594 ft 368 kts 211°
2026-04-23 22:21 24.63058 54.93482 6857 ft 369 kts 211°
2026-04-23 22:21 24.60878 54.92058 6298 ft 367 kts 211°
2026-04-23 22:21 24.58666 54.90613 6012 ft 368 kts 211°
2026-04-23 22:22 24.56446 54.89164 5983 ft 371 kts 211°
2026-04-23 22:22 24.54229 54.87718 5910 ft 366 kts 211°
2026-04-23 22:22 24.52063 54.86304 5363 ft 364 kts 211°
2026-04-23 22:22 24.49898 54.84892 4639 ft 366 kts 211°
2026-04-23 22:23 24.47694 54.83456 4155 ft 369 kts 210°
2026-04-23 22:23 24.45485 54.82089 3916 ft 356 kts 204°
2026-04-23 22:23 24.43132 54.81555 3653 ft 341 kts 177°
2026-04-23 22:23 24.40910 54.82244 3410 ft 324 kts 148°
2026-04-23 22:24 24.39373 54.83911 3184 ft 306 kts 117°
2026-04-23 22:24 24.38831 54.86069 3023 ft 287 kts 91°
2026-04-23 22:24 24.38690 54.88187 2991 ft 271 kts 101°
2026-04-23 22:24 24.37909 54.89948 2969 ft 252 kts 129°
2026-04-23 22:25 24.36487 54.91008 2969 ft 242 kts 160°
2026-04-23 22:25 24.34907 54.91111 2973 ft 220 kts 194°
2026-04-23 22:25 24.33621 54.90358 3050 ft 208 kts 217°
2026-04-23 22:25 24.32541 54.89321 3017 ft 206 kts 230°
2026-04-23 22:26 24.31981 54.87903 2982 ft 200 kts 268°
2026-04-23 22:26 24.32047 54.86422 2805 ft 194 kts 280°
2026-04-23 22:26 24.32267 54.84975 2528 ft 192 kts 289°
2026-04-23 22:26 24.32727 54.83601 2509 ft 192 kts 301°
2026-04-23 22:27 24.33397 54.82344 2507 ft 190 kts 309°
2026-04-23 22:27 24.34177 54.81181 2502 ft 188 kts 313°
2026-04-23 22:27 24.34989 54.80047 2495 ft 188 kts 313°
2026-04-23 22:27 24.35765 54.78966 2474 ft 174 kts 313°
2026-04-23 22:28 24.36472 54.77968 2421 ft 158 kts 314°
2026-04-23 22:28 24.37140 54.77030 2281 ft 156 kts 314°
2026-04-23 22:28 24.37801 54.76096 2063 ft 154 kts 315°
2026-04-23 22:28 24.38447 54.75185 1863 ft 148 kts 315°
2026-04-23 22:29 24.39061 54.74312 1654 ft 141 kts 315°
2026-04-23 22:29 24.39652 54.73452 1474 ft 140 kts 313°
2026-04-23 22:29 24.40236 54.72607 1280 ft 140 kts 313°
2026-04-23 22:29 24.40819 54.71733 1093 ft 140 kts 312°
2026-04-23 22:30 24.41423 54.70905 909 ft 138 kts 317°
2026-04-23 22:30 24.42040 54.70095 771 ft 140 kts 311°
2026-04-23 22:30 24.42621 54.69246 613 ft 139 kts 314°
2026-04-23 22:30 24.43232 54.68418 462 ft 139 kts 313°
2026-04-23 22:31 24.43835 54.67591 256 ft 138 kts 311°
2026-04-23 22:31 24.44420 54.66759 104 ft 131 kts 310°
2026-04-23 22:31 24.44856 54.66172 91 ft 67 kts 309°
2026-04-23 22:31 24.45135 54.65782 91 ft 61 kts 306°
2026-04-23 22:32 24.45359 54.65434 91 ft 43 kts 296°
2026-04-23 22:32 24.45421 54.65194 91 ft 7 kts 282°
2026-04-23 22:32 24.45429 54.65145 91 ft 7 kts 281°
2026-04-23 22:32 24.45438 54.65098 91 ft 0 kts 281°
2026-04-23 22:33 24.45439 54.65092 91 ft 1 kts 281°
2026-04-23 22:33 24.45444 54.65062 91 ft 7 kts 281°
2026-04-23 22:33 24.45470 54.64976 91 ft 15 kts 291°
2026-04-23 22:33 24.45451 54.64852 91 ft 10 kts 292°
2026-04-23 22:34 24.45484 54.64803 91 ft 8 kts 307°
2026-04-23 22:34 24.45496 54.64785 91 ft 0 kts 307°
2026-04-23 22:34 24.45503 54.64775 91 ft 2 kts 308°
2026-04-23 22:34 24.45526 54.64743 91 ft 7 kts 308°
2026-04-23 22:35 24.45570 54.64680 91 ft 12 kts 302°
2026-04-23 22:35 24.45542 54.64590 91 ft 15 kts 221°
2026-04-23 22:35 24.45448 54.64509 91 ft 18 kts 218°
2026-04-23 22:35 24.45343 54.64449 91 ft 16 kts 161°
2026-04-23 22:36 24.45300 54.64553 91 ft 15 kts 100°
2026-04-23 22:36 24.45279 54.64673 91 ft 16 kts 101°
2026-04-23 22:36 24.45249 54.64805 91 ft 18 kts 107°
2026-04-23 22:36 24.45214 54.64887 91 ft 8 kts 165°
2026-04-23 22:37 24.45152 54.64872 91 ft 9 kts 197°
2026-04-23 22:37 24.45122 54.64862 91 ft 0 kts 197°